Header for Extended Forecast Station List Page

Search by: ID | Name | Date | Parm | Value | Avg | % Avg
Sort by: ID | Name | Date | Parm | Value | Avg | % Avg

Enter search or view all records.

Click on id for station plot
#IDNameDateParmValueAvg% Avg
0BULO3BULLY CREEK-BULLY CREEK DAM04-12-2021INFLOW (KAF)1254
1MYKO3MCKAY CREEK-NEAR PILOT ROCK04-12-2021DISCHARGE (KAF)111576
2WRMO3MALHEUR-WARM SPRINGS DAM04-12-2021INFLOW (KAF)202773
3BERO3MALHEUR-AGENCY VALLEY DAM04-12-2021INFLOW (KAF)203461
4RIDI1WILLOW CREEK-RIRIE DAM04-12-2021INFLOW (KAF)193948
5GIBO3UMATILLA-NEAR GIBBON04-12-2021DISCHARGE (KAF)8157143
6UMAO3UMATILLA-NEAR UMATILLA04-12-2021DISCHARGE (KAF)12658218
7PIHI1PORTNEUF-AT POCATELLO04-12-2021DISCHARGE (KAF)316945
8LWRI1LITTLE WOOD-LITTLE WOOD DAM04-12-2021INFLOW (KAF)227131
9DLGM8CLARK FORK-AT DEER LODGE04-12-2021DISCHARGE (KAF)677590
10TCHW1WALLA WALLA-NEAR TOUCHET04-12-2021DISCHARGE (KAF)888999
11EASW1YAKIMA-AT EASTON04-12-2021DISCHARGE (KAF)10993117
12KADW1KACHESS-KACHESS DAM04-12-2021INFLOW (KAF)11295118
13TNAW1TEANAWAY-BELOW FORKS04-12-2021DISCHARGE (KAF)137100138
14KEDW1YAKIMA-KEECHELUS LAKE04-12-2021INFLOW (KAF)127102124
15PDTO3UMATILLA-AT PENDLETON04-12-2021DISCHARGE (KAF)157106148
16BUDW1BUMPING-BUMPING LAKE DAM04-12-2021INFLOW (KAF)117109108
17SATI1ST MARIES-NEAR SANTA04-12-2021DISCHARGE (KAF)8011371
18DEDI1DEADWOOD-NEAR LOWMAN04-12-2021INFLOW (KAF)7912862
19HWRI1BIG LOST-AT HOWELL RANCH NEAR CHILLY04-12-2021DISCHARGE (KAF)4215826
20MACI1BIG LOST-MACKAY RESERVOIR NEAR MACKAY04-12-2021INFLOW (KAF)3815824
21HOTI1BRUNEAU-NEAR HOT SPRINGS04-12-2021DISCHARGE (KAF)10416663
22RILW1TIETON-RIMROCK LAKE NEAR RIMROCK04-12-2021INFLOW (KAF)208185113
23ARDW1ENTIAT-NEAR ARDENVOIR04-12-2021DISCHARGE (KAF)219193113
24HODO3HOOD-NEAR TUCKER BRIDGE04-12-2021DISCHARGE (KAF)197197100
25IPDI1HENRYS FORK-ISLAND PARK DAM04-12-2021INFLOW (KAF)15120773
26MAGI1BIG WOOD-MAGIC DAM04-12-2021INFLOW (KAF)4121719
27HALI1BIG WOOD-AT HAILEY04-12-2021DISCHARGE (KAF)8522438
28STRM8ST. REGIS-NEAR ST. REGIS04-12-2021DISCHARGE (KAF)19223582
29OWYO3OWYHEE-OWYHEE DAM04-12-2021INFLOW (KAF)7424231
30RCCM8ROCK CREEK-NEAR CLINTON04-12-2021DISCHARGE (KAF)259252103
31UNDW1WHITE SALMON-NEAR UNDERWOOD04-12-2021DISCHARGE (KAF)25629686
32CHEI1FALL RIVER-NEAR CHESTER04-12-2021DISCHARGE (KAF)24530879
33WSRI1WEISER-NEAR WEISER04-12-2021DISCHARGE (KAF)22032069
34MILI1SNAKE-AT MILNER04-12-2021DISCHARGE (KAF)M321M
35CLFW1NACHES-NEAR CLIFFDEL04-12-2021DISCHARGE (KAF)404338120
36TEAI1TETON-NEAR ST. ANTHONY04-12-2021DISCHARGE (KAF)28233883
37CLUW1CLE ELUM-CLE ELUM LAKE04-12-2021INFLOW (KAF)457361127
38PARI1BOISE-NEAR PARMA04-12-2021DISCHARGE (KAF)35040287
39PARW1YAKIMA-NEAR PARKER04-12-2021DISCHARGE (KAF)525422124
40PITW1KLICKITAT-NEAR PITT04-12-2021DISCHARGE (KAF)39843891
41BIGI1BOISE-AT GLENWOOD BRIDGE04-12-2021DISCHARGE (KAF)38144685
42CSDI1NF PAYETTE-CASCADE DAM04-12-2021INFLOW (KAF)30345666
43NACW1NACHES-NEAR NACHES04-12-2021DISCHARGE (KAF)563469120
44MONO3NF JOHN DAY-AT MONUMENT04-12-2021DISCHARGE (KAF)41047287
45ARAI1SF BOISE-ANDERSON RANCH DAM04-12-2021INFLOW (KAF)24148050
46ANTI1HENRYS FORK-AT ST. ANTHONY04-12-2021DISCHARGE (KAF)54560989
47SERO3JOHN DAY-AT SERVICE CK04-12-2021DISCHARGE (KAF)51566078
48REXI1HENRYS FORK-AT REXBURG04-12-2021DISCHARGE (KAF)55370179
49PRTI1PRIEST-NEAR PRIEST RIVER04-12-2021DISCHARGE (KAF)49873468
50JLKW4SNAKE-JACKSON LAKE AT DAM04-12-2021INFLOW (KAF)51775369
51BONM8BLACKFOOT-NEAR BONNER04-12-2021DISCHARGE (KAF)64377883
52KIOW1YAKIMA-AT KIONA04-12-2021DISCHARGE (KAF)796780102
53UMTW1YAKIMA-AT UMTANUM04-12-2021DISCHARGE (KAF)847791107
54PATW1METHOW-NEAR PATEROS04-12-2021DISCHARGE (KAF)921821112
55CHDW1CHELAN-LAKE CHELAN DAM04-12-2021INFLOW (KAF)1067973110
56TRYO3GRANDE RONDE-TROY04-12-2021DISCHARGE (KAF)975110488
57EMMI1PAYETTE-NEAR EMMETT04-12-2021DISCHARGE (KAF)622114055
58BITM8BITTERROOT-NEAR MISSOULA04-12-2021DISCHARGE (KAF)1040117788
59MODO3DESCHUTES-AT MOODY NR BIGGS04-12-2021DISCHARGE (KAF)1170130590
60ABOM8CLARK FORK-ABOVE MISSOULA04-12-2021DISCHARGE (KAF)1141137483
61PESW1WENATCHEE-AT PESHASTIN04-12-2021DISCHARGE (KAF)14841376108
62TONW1OKANOGAN-NEAR TONASKET04-12-2021DISCHARGE (KAF)16021411114
63WGCM8MF FLATHEAD-NEAR WEST GLACIER04-12-2021DISCHARGE (KAF)1300152985
64FCFM8NF FLATHEAD-NEAR COLUMBIA FALLS04-12-2021DISCHARGE (KAF)1008157264
65JKSW4SNAKE-NEAR JACKSON04-12-2021DISCHARGE (KAF)1149158173
66BFTI1SNAKE-NEAR BLACKFOOT04-12-2021DISCHARGE (KAF)1242167274
67LAUW1KETTLE-AT LAURIER04-12-2021DISCHARGE (KAF)1316167978
68SNAI1SNAKE-AT BLACKFOOT04-12-2021DISCHARGE (KAF)1291177673
69HHWM8SF FLATHEAD-HUNGRY HORSE DAM04-12-2021INFLOW (KAF)1537186982
70ALPW4SNAKE-NEAR ALPINE04-12-2021DISCHARGE (KAF)1395204368
71SHYI1SNAKE-NEAR SHELLEY04-12-2021DISCHARGE (KAF)1808225880
72COEI1COEUR D ALENE-COEUR D ALENE LAKE04-12-2021INFLOW (KAF)1756226478
73SWAI1SNAKE-BELOW SWAN FALLS04-12-2021DISCHARGE (KAF)1502227866
74AFRI1SNAKE-AMERICAN FALLS RESERVOIR04-12-2021INFLOW (KAF)1742229676
75DWRI1NF CLEARWATER-DWORSHAK DAM04-12-2021INFLOW (KAF)1987245781
76SIFI1SNAKE-AB EAGLE ROCK NR IDAHO FALLS04-12-2021DISCHARGE (KAF)2057245984
77BELM8CLARK FORK-BELOW MISSOULA04-12-2021DISCHARGE (KAF)2176259184
78LLKW1SPOKANE-AT LONGLAKE04-12-2021INFLOW (KAF)1879277268
79PLDI1SF SNAKE-PALISADES DAM04-12-2021INFLOW (KAF)1983293268
80HEII1SNAKE-NEAR HEISE04-12-2021DISCHARGE (KAF)2848302294
81SRGM8CLARK FORK-AT ST REGIS04-12-2021DISCHARGE (KAF)2742346179
82CFMM8FLATHEAD-AT COLUMBIA FALLS04-12-2021DISCHARGE (KAF)3337408082
83ORFI1CLEARWATER-AT OROFINO04-12-2021DISCHARGE (KAF)3581427884
84WEII1SNAKE-AT WEISER04-12-2021DISCHARGE (KAF)2879451564
85BRNI1SNAKE-BROWNLEE DAM04-12-2021INFLOW (KAF)3208486866
86KERM8FLATHEAD-SELI’Š KSANKA QLISPE’ DAM04-12-2021INFLOW (KAF)3739508274
87LEOI1KOOTENAI-AT LEONIA04-12-2021DISCHARGE (KAF)3685523770
88WHBI1SALMON-AT WHITEBIRD04-12-2021DISCHARGE (KAF)3280554759
89LYDM8KOOTENAI-LIBBY DAM04-12-2021INFLOW (KAF)4686572782
90SPDI1CLEARWATER-AT SPALDING04-12-2021DISCHARGE (KAF)4890641476
91NOXM8CLARK FORK-NOXON RAPIDS DAM04-12-2021INFLOW (KAF)6069860471
92CABI1CLARK FORK-CABINET GORGE DAM04-12-2021INFLOW (KAF)6684911773
93ALFW1PEND OREILLE-ALBENI FALLS DAM04-12-2021INFLOW (KAF)76071058972
94ANAW1SNAKE-NEAR ANATONE04-12-2021DISCHARGE (KAF)72261240658
95IHDW1SNAKE-ICE HARBOR DAM04-12-2021INFLOW (KAF)121781878965
96LGDW1SNAKE-LOWER GRANITE DAM04-12-2021INFLOW (KAF)121161883264
97LGSW1SNAKE-LITTLE GOOSE DAM04-12-2021INFLOW (KAF)120611884564
98LMNW1SNAKE-LOWER MONUMENTAL DAM04-12-2021INFLOW (KAF)121751890964
99CHJW1COLUMBIA-CHIEF JOSEPH DAM04-12-2021INFLOW (KAF)276683142288
100WELW1COLUMBIA-WELLS DAM04-12-2021INFLOW (KAF)301923403489
101RRHW1COLUMBIA-ROCKY REACH DAM04-12-2021INFLOW (KAF)310533457390
102WANW1COLUMBIA-WANAPUM DAM04-12-2021INFLOW (KAF)325664138279
103GCDW1COLUMBIA-GRAND COULEE DAM04-12-2021INFLOW (KAF)302374158673
104PRWW1COLUMBIA-PRIEST RAPIDS DAM04-12-2021INFLOW (KAF)325624220277
105TDAO3COLUMBIA-THE DALLES DAM04-12-2021INFLOW (KAF)473565803582
106BONO3COLUMBIA-BONNEVILLE DAM04-12-2021INFLOW (KAF)482155984381
107MCDW1COLUMBIA-MCNARY DAM04-12-2021INFLOW (KAF)456036289373
108JDAO3COLUMBIA-JOHN DAY DAM04-12-2021INFLOW (KAF)471896472673
109BFEI1KOOTENAI-AT BONNERS FERRY04-12-2021STAGE (FT)MMM
110DRMM8CLARK FORK-NR DRUMMOND04-12-2021DISCHARGE (KAF)193MM
111HOPI1PEND OREILLE-PEND OREILLE LAKE NR HOPE04-12-2021LAKE ELEVATION (FT)MMM
112SPOW1SPOKANE-AT SPOKANE04-12-2021DISCHARGE (KAF)1694MM
113SJMI1ST JOE-AT ST MARIES04-12-2021STAGE (FT)MMM
114CIBW1COLUMBIA-AT INTL BOUNDARY04-12-2021DISCHARGE (KAF)26985MM
115LUCI1BOISE-LUCKY PEAK DAM04-12-2021INFLOW (KAF)1032MM